TimeMDT,TemperatureF,Dew PointF,Humidity,Sea Level PressureIn,VisibilityMPH,Wind Direction,Wind SpeedMPH,Gust SpeedMPH,PrecipitationIn,Events,Conditions,WindDirDegrees,DateUTC
12:53 AM,55.0,37.9,53,29.90,10.0,SW,3.5,-,N/A,,Mostly Cloudy,230,2013-04-22 06:53:00
1:53 AM,52.0,37.9,59,29.90,10.0,NW,4.6,-,N/A,,Scattered Clouds,310,2013-04-22 07:53:00
2:53 AM,48.9,37.0,64,29.90,10.0,Calm,Calm,-,N/A,,Partly Cloudy,0,2013-04-22 08:53:00
3:53 AM,48.9,35.1,59,29.89,10.0,WNW,3.5,-,N/A,,Partly Cloudy,290,2013-04-22 09:53:00
4:53 AM,50.0,37.0,61,29.90,10.0,North,5.8,-,N/A,,Mostly Cloudy,350,2013-04-22 10:53:00
5:53 AM,50.0,35.1,57,29.91,10.0,West,6.9,-,N/A,,Mostly Cloudy,260,2013-04-22 11:53:00
6:53 AM,48.9,34.0,56,29.93,10.0,NW,4.6,-,N/A,,Mostly Cloudy,310,2013-04-22 12:53:00
7:53 AM,50.0,33.1,52,29.96,10.0,NNW,9.2,-,N/A,,Mostly Cloudy,330,2013-04-22 13:53:00
8:53 AM,50.0,32.0,50,29.98,10.0,North,10.4,-,N/A,,Mostly Cloudy,350,2013-04-22 14:53:00
9:53 AM,48.9,33.1,54,30.00,10.0,North,9.2,-,N/A,,Mostly Cloudy,350,2013-04-22 15:53:00
10:53 AM,50.0,26.1,39,30.03,10.0,NNW,16.1,21.9,N/A,,Mostly Cloudy,330,2013-04-22 16:53:00
11:53 AM,51.1,28.0,41,30.03,10.0,NNW,13.8,-,N/A,,Mostly Cloudy,330,2013-04-22 17:53:00
12:53 PM,51.1,27.0,39,30.04,10.0,NW,11.5,-,N/A,,Mostly Cloudy,320,2013-04-22 18:53:00
1:53 PM,52.0,24.1,34,30.02,10.0,NNW,13.8,-,N/A,,Mostly Cloudy,330,2013-04-22 19:53:00
2:53 PM,54.0,23.0,30,30.01,10.0,NW,11.5,23.0,N/A,,Mostly Cloudy,310,2013-04-22 20:53:00
3:53 PM,55.0,19.9,25,30.00,10.0,NNW,12.7,23.0,N/A,,Scattered Clouds,340,2013-04-22 21:53:00
4:53 PM,54.0,18.0,24,29.99,10.0,West,12.7,21.9,N/A,,Scattered Clouds,270,2013-04-22 22:53:00
5:53 PM,53.1,21.9,30,30.00,10.0,North,12.7,20.7,N/A,,Partly Cloudy,350,2013-04-22 23:53:00
6:53 PM,51.1,24.1,35,30.02,10.0,NNW,21.9,28.8,N/A,,Partly Cloudy,340,2013-04-23 00:53:00
7:53 PM,46.9,23.0,39,30.04,10.0,North,12.7,-,N/A,,Partly Cloudy,350,2013-04-23 01:53:00
8:53 PM,45.0,26.1,48,30.06,10.0,North,12.7,-,N/A,,Partly Cloudy,350,2013-04-23 02:53:00
9:53 PM,42.1,28.0,58,30.09,10.0,North,5.8,-,N/A,,Partly Cloudy,10,2013-04-23 03:53:00
10:53 PM,42.1,28.9,60,30.10,10.0,NNW,9.2,-,N/A,,Partly Cloudy,340,2013-04-23 04:53:00
11:53 PM,39.9,25.0,55,30.10,10.0,North,11.5,-,N/A,,Partly Cloudy,350,2013-04-23 05:53:00